Time,TemperatureF,DewpointF,PressureIn,WindDirection,WindDirectionDegrees,WindSpeedMPH,WindSpeedGustMPH,Humidity,HourlyPrecipIn,Conditions,Clouds,dailyrainin,SoftwareType,DateUTC
2013-09-16 00:01:00,60.3,58.0,30.00,NNW,338,0.0,0.0,92,0.00,,---,0.00,VWS V14.01,2013-09-16 07:01:00,
2013-09-16 00:06:00,60.1,57.8,30.00,NNW,338,0.0,0.0,92,0.00,,---,0.00,VWS V14.01,2013-09-16 07:06:00,
2013-09-16 00:11:00,60.1,57.8,30.00,NNW,338,0.0,0.0,92,0.00,,---,0.00,VWS V14.01,2013-09-16 07:11:00,
2013-09-16 00:16:00,60.1,58.1,30.00,NNW,338,0.0,0.0,93,0.00,,---,0.00,VWS V14.01,2013-09-16 07:16:00,
2013-09-16 00:21:00,60.1,58.1,30.00,NNW,338,0.0,0.0,93,0.00,,---,0.00,VWS V14.01,2013-09-16 07:21:00,
2013-09-16 00:26:00,60.3,58.0,30.00,NNW,338,0.0,0.0,92,0.00,,---,0.00,VWS V14.01,2013-09-16 07:26:00,
2013-09-16 00:31:00,60.1,58.1,30.00,NNW,338,0.0,0.0,93,0.00,,---,0.00,VWS V14.01,2013-09-16 07:31:00,
2013-09-16 00:36:00,60.1,58.1,30.00,North,0,0.0,0.0,93,0.00,,---,0.00,VWS V14.01,2013-09-16 07:36:00,
2013-09-16 00:41:00,60.1,58.1,30.00,North,0,0.0,0.0,93,0.00,,---,0.00,VWS V14.01,2013-09-16 07:41:00,
2013-09-16 00:46:00,60.1,58.1,30.00,North,0,0.0,0.0,93,0.00,,---,0.00,VWS V14.01,2013-09-16 07:46:00,
2013-09-16 00:51:00,60.1,58.1,30.00,North,0,0.9,0.9,93,0.00,,---,0.00,VWS V14.01,2013-09-16 07:51:00,
2013-09-16 00:56:00,60.1,58.1,30.00,North,0,0.0,0.4,93,0.00,,---,0.00,VWS V14.01,2013-09-16 07:56:00,
2013-09-16 01:01:00,60.1,58.1,30.00,North,0,0.0,0.0,93,0.00,,---,0.01,VWS V14.01,2013-09-16 08:01:00,
2013-09-16 01:06:00,60.1,58.1,30.00,North,0,0.0,0.0,93,0.00,,---,0.00,VWS V14.01,2013-09-16 08:06:00,
2013-09-16 01:11:00,60.1,58.1,30.01,North,0,0.0,0.0,93,0.00,,---,0.00,VWS V14.01,2013-09-16 08:11:00,
2013-09-16 01:16:00,60.1,58.1,30.00,North,0,0.0,0.0,93,0.00,,---,0.00,VWS V14.01,2013-09-16 08:16:00,
2013-09-16 01:20:00,60.1,58.1,30.00,North,0,0.0,0.0,93,0.00,,---,0.00,VWS V14.01,2013-09-16 08:20:00,
2013-09-16 01:25:00,60.1,58.1,30.00,North,0,0.0,0.0,93,0.00,,---,0.00,VWS V14.01,2013-09-16 08:25:00,
2013-09-16 01:30:00,59.9,57.9,30.00,North,0,0.0,0.0,93,0.00,,---,0.00,VWS V14.01,2013-09-16 08:30:00,
2013-09-16 01:35:00,59.9,57.9,30.00,North,0,0.0,0.0,93,0.00,,---,0.00,VWS V14.01,2013-09-16 08:35:00,
2013-09-16 01:40:00,59.9,57.9,30.01,North,0,0.0,0.0,93,0.00,,---,0.00,VWS V14.01,2013-09-16 08:40:00,
2013-09-16 01:45:00,59.9,57.9,30.01,North,0,0.0,0.0,93,0.01,,---,0.01,VWS V14.01,2013-09-16 08:45:00,
2013-09-16 01:50:00,59.9,57.9,30.01,North,0,0.0,0.0,93,0.01,,---,0.01,VWS V14.01,2013-09-16 08:50:00,
2013-09-16 01:55:00,59.9,57.9,30.01,North,0,0.0,0.0,93,0.01,,---,0.01,VWS V14.01,2013-09-16 08:55:00,
2013-09-16 02:00:00,59.9,57.9,30.01,North,0,0.0,0.0,93,0.01,,---,0.01,VWS V14.01,2013-09-16 09:00:00,
2013-09-16 02:05:00,59.9,57.9,30.01,North,0,0.0,0.0,93,0.01,,---,0.01,VWS V14.01,2013-09-16 09:05:00,
2013-09-16 02:10:00,59.9,57.9,30.02,North,0,0.0,0.0,93,0.01,,---,0.01,VWS V14.01,2013-09-16 09:10:00,
2013-09-16 02:15:00,59.9,57.9,30.02,North,0,0.0,0.0,93,0.01,,---,0.01,VWS V14.01,2013-09-16 09:15:00,
2013-09-16 02:20:00,59.9,57.9,30.02,North,0,0.0,0.0,93,0.01,,---,0.01,VWS V14.01,2013-09-16 09:20:00,
2013-09-16 02:25:00,59.9,57.9,30.02,North,0,0.0,0.0,93,0.01,,---,0.01,VWS V14.01,2013-09-16 09:25:00,
2013-09-16 02:30:00,59.8,57.8,30.02,NE,45,0.0,0.0,93,0.01,,---,0.01,VWS V14.01,2013-09-16 09:30:00,
2013-09-16 02:35:00,59.8,57.8,30.02,South,180,0.2,0.2,93,0.01,,---,0.01,VWS V14.01,2013-09-16 09:35:00,
2013-09-16 02:40:00,59.8,57.8,30.02,South,180,0.4,0.4,93,0.01,,---,0.01,VWS V14.01,2013-09-16 09:40:00,
2013-09-16 02:45:00,59.8,57.8,30.03,South,180,0.0,0.0,93,0.00,,---,0.01,VWS V14.01,2013-09-16 09:45:00,
2013-09-16 02:50:00,59.8,57.8,30.03,South,180,0.9,0.9,93,0.00,,---,0.01,VWS V14.01,2013-09-16 09:50:00,
2013-09-16 02:55:00,59.8,57.8,30.03,South,180,0.0,0.0,93,0.00,,---,0.01,VWS V14.01,2013-09-16 09:55:00,
2013-09-16 03:00:00,59.6,57.6,30.03,South,180,1.1,1.1,93,0.00,,---,0.01,VWS V14.01,2013-09-16 10:00:00,
2013-09-16 03:05:00,59.6,57.6,30.03,South,180,0.7,1.1,93,0.00,,---,0.01,VWS V14.01,2013-09-16 10:05:00,
2013-09-16 03:10:00,59.4,57.4,30.03,South,180,0.4,0.4,93,0.00,,---,0.01,VWS V14.01,2013-09-16 10:10:00,
2013-09-16 03:15:00,59.4,57.4,30.03,South,180,1.1,1.1,93,0.00,,---,0.01,VWS V14.01,2013-09-16 10:15:00,
2013-09-16 03:20:00,59.4,57.4,30.03,South,180,0.0,0.4,93,0.00,,---,0.01,VWS V14.01,2013-09-16 10:20:00,
2013-09-16 03:25:00,59.4,57.4,30.03,South,180,0.0,0.0,93,0.00,,---,0.01,VWS V14.01,2013-09-16 10:25:00,
2013-09-16 03:30:00,59.4,57.4,30.03,South,180,0.0,0.0,93,0.00,,---,0.01,VWS V14.01,2013-09-16 10:30:00,
2013-09-16 03:35:00,59.2,57.2,30.03,South,180,0.0,0.0,93,0.00,,---,0.01,VWS V14.01,2013-09-16 10:35:00,
2013-09-16 03:40:00,59.2,57.2,30.03,South,180,0.0,0.0,93,0.00,,---,0.01,VWS V14.01,2013-09-16 10:40:00,
2013-09-16 03:45:00,59.0,57.0,30.03,South,180,0.0,0.0,93,0.00,,---,0.01,VWS V14.01,2013-09-16 10:45:00,
2013-09-16 03:50:00,59.0,57.0,30.03,South,180,0.0,0.0,93,0.00,,---,0.01,VWS V14.01,2013-09-16 10:50:00,
2013-09-16 03:55:00,59.0,56.7,30.03,South,180,0.0,0.0,92,0.00,,---,0.01,VWS V14.01,2013-09-16 10:55:00,
2013-09-16 04:00:00,58.9,56.6,30.03,South,180,0.0,0.0,92,0.00,,---,0.01,VWS V14.01,2013-09-16 11:00:00,
2013-09-16 04:05:00,58.7,56.4,30.04,South,180,0.0,0.0,92,0.00,,---,0.01,VWS V14.01,2013-09-16 11:05:00,
2013-09-16 04:10:00,58.7,56.4,30.04,South,180,0.0,0.0,92,0.00,,---,0.01,VWS V14.01,2013-09-16 11:10:00,
2013-09-16 04:15:00,58.7,56.4,30.04,South,180,0.0,0.4,92,0.00,,---,0.01,VWS V14.01,2013-09-16 11:15:00,
2013-09-16 04:20:00,58.7,56.4,30.04,South,180,0.0,0.0,92,0.00,,---,0.01,VWS V14.01,2013-09-16 11:20:00,
2013-09-16 04:25:00,58.7,56.4,30.04,South,180,0.0,0.0,92,0.00,,---,0.01,VWS V14.01,2013-09-16 11:25:00,
2013-09-16 04:30:00,58.5,56.2,30.04,South,180,0.0,0.0,92,0.00,,---,0.01,VWS V14.01,2013-09-16 11:30:00,
2013-09-16 04:35:00,58.5,56.2,30.04,South,180,0.7,0.7,92,0.00,,---,0.01,VWS V14.01,2013-09-16 11:35:00,
2013-09-16 04:40:00,58.5,56.2,30.04,South,180,0.4,0.4,92,0.00,,---,0.01,VWS V14.01,2013-09-16 11:40:00,
2013-09-16 04:45:00,58.5,56.2,30.04,South,180,0.0,0.0,92,0.00,,---,0.01,VWS V14.01,2013-09-16 11:45:00,
2013-09-16 04:50:00,58.5,56.2,30.04,South,180,0.0,0.0,92,0.00,,---,0.01,VWS V14.01,2013-09-16 11:50:00,
2013-09-16 04:55:00,58.3,56.0,30.04,South,180,1.1,1.1,92,0.01,,---,0.02,VWS V14.01,2013-09-16 11:55:00,
2013-09-16 05:00:00,58.3,56.0,30.04,South,180,0.0,0.0,92,0.01,,---,0.02,VWS V14.01,2013-09-16 12:00:00,
2013-09-16 05:05:00,58.3,56.0,30.04,South,180,0.0,0.0,92,0.01,,---,0.02,VWS V14.01,2013-09-16 12:05:00,
2013-09-16 05:10:00,58.3,56.0,30.04,South,180,0.4,0.4,92,0.01,,---,0.02,VWS V14.01,2013-09-16 12:10:00,
2013-09-16 05:15:00,58.1,55.8,30.04,South,180,0.0,0.0,92,0.01,,---,0.02,VWS V14.01,2013-09-16 12:15:00,
2013-09-16 05:20:00,58.0,55.7,30.04,South,180,0.0,0.0,92,0.01,,---,0.02,VWS V14.01,2013-09-16 12:20:00,
2013-09-16 05:25:00,58.0,55.7,30.04,South,180,0.0,0.0,92,0.01,,---,0.02,VWS V14.01,2013-09-16 12:25:00,
2013-09-16 05:30:00,57.8,55.5,30.04,South,180,0.0,0.0,92,0.01,,---,0.02,VWS V14.01,2013-09-16 12:30:00,
2013-09-16 05:35:00,57.6,55.3,30.04,South,180,0.4,0.4,92,0.01,,---,0.02,VWS V14.01,2013-09-16 12:35:00,
2013-09-16 05:40:00,57.6,55.3,30.04,South,180,0.9,0.9,92,0.01,,---,0.02,VWS V14.01,2013-09-16 12:40:00,
2013-09-16 05:45:00,57.4,55.1,30.04,South,180,0.2,1.3,92,0.01,,---,0.02,VWS V14.01,2013-09-16 12:45:00,
2013-09-16 05:50:00,57.2,54.9,30.04,South,180,0.0,0.0,92,0.01,,---,0.02,VWS V14.01,2013-09-16 12:50:00,
2013-09-16 05:55:00,57.2,54.9,30.04,South,180,0.0,0.0,92,0.00,,---,0.02,VWS V14.01,2013-09-16 12:55:00,
2013-09-16 06:00:00,57.2,54.9,30.04,South,180,0.0,0.0,92,0.00,,---,0.02,VWS V14.01,2013-09-16 13:00:00,
2013-09-16 06:05:00,57.2,54.9,30.04,South,180,0.0,0.0,92,0.00,,---,0.02,VWS V14.01,2013-09-16 13:05:00,
2013-09-16 06:10:00,57.2,54.9,30.04,South,180,0.0,0.0,92,0.00,,---,0.02,VWS V14.01,2013-09-16 13:10:00,
2013-09-16 06:15:00,57.2,54.9,30.04,South,180,0.9,0.9,92,0.00,,---,0.02,VWS V14.01,2013-09-16 13:15:00,
2013-09-16 06:20:00,57.2,54.9,30.04,South,180,0.4,0.4,92,0.00,,---,0.02,VWS V14.01,2013-09-16 13:20:00,
2013-09-16 06:25:00,57.2,54.9,30.04,South,180,0.2,0.2,92,0.00,,---,0.02,VWS V14.01,2013-09-16 13:25:00,
2013-09-16 06:30:00,57.2,54.9,30.04,South,180,0.7,0.7,92,0.00,,---,0.02,VWS V14.01,2013-09-16 13:30:00,
2013-09-16 06:35:00,57.1,54.8,30.04,South,180,0.0,0.2,92,0.00,,---,0.02,VWS V14.01,2013-09-16 13:35:00,
2013-09-16 06:40:00,57.1,54.8,30.04,South,180,0.4,0.4,92,0.00,,---,0.02,VWS V14.01,2013-09-16 13:40:00,
2013-09-16 06:45:00,56.9,54.6,30.04,South,180,0.0,0.0,92,0.00,,---,0.02,VWS V14.01,2013-09-16 13:45:00,
2013-09-16 06:50:00,56.9,54.6,30.04,South,180,0.0,0.0,92,0.00,,---,0.02,VWS V14.01,2013-09-16 13:50:00,
2013-09-16 06:55:00,56.7,54.4,30.04,South,180,0.0,0.7,92,0.00,,---,0.02,VWS V14.01,2013-09-16 13:55:00,
2013-09-16 07:00:00,56.7,54.4,30.04,South,180,0.0,0.0,92,0.00,,---,0.02,VWS V14.01,2013-09-16 14:00:00,
2013-09-16 07:05:00,56.7,54.4,30.04,South,180,0.0,0.0,92,0.00,,---,0.02,VWS V14.01,2013-09-16 14:05:00,
2013-09-16 07:10:00,56.7,54.4,30.05,South,180,0.7,0.7,92,0.00,,---,0.02,VWS V14.01,2013-09-16 14:10:00,
2013-09-16 07:15:00,56.9,54.6,30.05,South,180,1.1,1.1,92,0.00,,---,0.02,VWS V14.01,2013-09-16 14:15:00,
2013-09-16 07:20:00,57.1,54.8,30.05,South,180,0.0,0.0,92,0.00,,---,0.02,VWS V14.01,2013-09-16 14:20:00,
2013-09-16 07:25:00,57.1,54.8,30.05,South,180,0.0,0.4,92,0.00,,---,0.02,VWS V14.01,2013-09-16 14:25:00,
2013-09-16 07:30:00,57.1,54.8,30.05,South,180,0.0,0.0,92,0.00,,---,0.02,VWS V14.01,2013-09-16 14:30:00,
2013-09-16 07:35:00,57.1,54.8,30.05,South,180,0.0,0.0,92,0.00,,---,0.02,VWS V14.01,2013-09-16 14:35:00,
2013-09-16 07:40:00,57.2,54.9,30.05,South,180,0.0,0.0,92,0.00,,---,0.02,VWS V14.01,2013-09-16 14:40:00,
2013-09-16 07:45:00,57.2,54.9,30.05,South,180,0.0,0.0,92,0.00,,---,0.02,VWS V14.01,2013-09-16 14:45:00,
2013-09-16 07:50:00,57.4,55.1,30.05,South,180,0.4,0.4,92,0.00,,---,0.02,VWS V14.01,2013-09-16 14:50:00,
2013-09-16 07:55:00,57.6,55.3,30.05,South,180,0.0,0.0,92,0.00,,---,0.02,VWS V14.01,2013-09-16 14:55:00,
2013-09-16 08:00:00,57.8,55.5,30.05,South,180,0.0,0.0,92,0.00,,---,0.02,VWS V14.01,2013-09-16 15:00:00,
2013-09-16 08:05:00,58.0,55.7,30.06,South,180,0.2,0.2,92,0.00,,---,0.02,VWS V14.01,2013-09-16 15:05:00,
2013-09-16 08:10:00,58.1,55.8,30.06,South,180,0.4,0.4,92,0.00,,---,0.02,VWS V14.01,2013-09-16 15:10:00,
2013-09-16 08:15:00,58.3,56.0,30.06,South,180,0.4,1.1,92,0.00,,---,0.02,VWS V14.01,2013-09-16 15:15:00,
2013-09-16 08:20:00,58.5,56.2,30.06,South,180,0.4,0.4,92,0.00,,---,0.02,VWS V14.01,2013-09-16 15:20:00,
2013-09-16 08:25:00,58.5,56.2,30.06,South,180,0.0,0.4,92,0.00,,---,0.02,VWS V14.01,2013-09-16 15:25:00,
2013-09-16 08:30:00,58.7,56.4,30.06,South,180,2.7,2.7,92,0.00,,---,0.02,VWS V14.01,2013-09-16 15:30:00,
2013-09-16 08:35:00,58.7,56.4,30.06,South,180,1.8,1.8,92,0.00,,---,0.02,VWS V14.01,2013-09-16 15:35:00,
2013-09-16 08:40:00,58.7,56.4,30.06,South,180,1.1,1.1,92,0.00,,---,0.02,VWS V14.01,2013-09-16 15:40:00,
2013-09-16 08:45:00,58.9,56.3,30.06,South,180,1.1,1.1,91,0.00,,---,0.02,VWS V14.01,2013-09-16 15:45:00,
2013-09-16 08:50:00,58.9,56.3,30.06,South,180,0.7,0.7,91,0.00,,---,0.02,VWS V14.01,2013-09-16 15:50:00,
2013-09-16 08:55:00,59.0,56.7,30.06,South,180,0.9,0.9,92,0.00,,---,0.02,VWS V14.01,2013-09-16 15:55:00,
2013-09-16 09:00:00,59.0,56.1,30.06,South,180,0.9,0.9,90,0.00,,---,0.02,VWS V14.01,2013-09-16 16:00:00,
2013-09-16 09:05:00,59.2,56.6,30.06,South,180,0.4,0.4,91,0.00,,---,0.02,VWS V14.01,2013-09-16 16:05:00,
2013-09-16 09:10:00,59.2,56.3,30.06,South,180,0.7,0.7,90,0.00,,---,0.02,VWS V14.01,2013-09-16 16:10:00,
2013-09-16 09:15:00,59.2,56.3,30.06,South,180,0.0,0.0,90,0.00,,---,0.02,VWS V14.01,2013-09-16 16:15:00,
2013-09-16 09:20:00,59.4,56.5,30.07,NW,315,0.4,0.9,90,0.00,,---,0.02,VWS V14.01,2013-09-16 16:20:00,
2013-09-16 09:25:00,59.4,56.5,30.07,NNE,22,0.2,0.2,90,0.00,,---,0.02,VWS V14.01,2013-09-16 16:25:00,
2013-09-16 09:30:00,59.4,56.5,30.06,NNW,338,0.4,0.4,90,0.00,,---,0.02,VWS V14.01,2013-09-16 16:30:00,
2013-09-16 09:35:00,59.2,56.3,30.07,NNE,22,2.7,2.7,90,0.00,,---,0.02,VWS V14.01,2013-09-16 16:35:00,
2013-09-16 09:40:00,59.4,56.8,30.07,NW,315,1.6,1.6,91,0.00,,---,0.02,VWS V14.01,2013-09-16 16:40:00,
2013-09-16 09:45:00,59.4,56.8,30.07,South,180,0.0,0.0,91,0.00,,---,0.02,VWS V14.01,2013-09-16 16:45:00,
2013-09-16 09:50:00,59.4,56.8,30.07,South,180,0.0,0.0,91,0.00,,---,0.02,VWS V14.01,2013-09-16 16:50:00,
2013-09-16 09:55:00,59.4,56.5,30.07,South,180,0.0,0.0,90,0.00,,---,0.02,VWS V14.01,2013-09-16 16:55:00,
2013-09-16 10:00:00,59.6,56.7,30.07,South,180,0.9,0.9,90,0.00,,---,0.02,VWS V14.01,2013-09-16 17:00:00,
2013-09-16 10:05:00,59.6,57.0,30.07,South,180,0.0,0.0,91,0.00,,---,0.02,VWS V14.01,2013-09-16 17:05:00,
2013-09-16 10:10:00,59.8,57.2,30.07,South,180,0.0,0.0,91,0.00,,---,0.02,VWS V14.01,2013-09-16 17:10:00,
2013-09-16 10:15:00,59.8,56.9,30.07,South,180,0.0,0.0,90,0.00,,---,0.02,VWS V14.01,2013-09-16 17:15:00,
2013-09-16 10:20:00,59.9,57.0,30.07,South,180,1.1,1.1,90,0.00,,---,0.02,VWS V14.01,2013-09-16 17:20:00,
2013-09-16 10:25:00,60.1,57.2,30.07,South,180,0.0,0.0,90,0.00,,---,0.02,VWS V14.01,2013-09-16 17:25:00,
2013-09-16 10:30:00,60.1,57.5,30.07,South,180,0.0,0.0,91,0.00,,---,0.02,VWS V14.01,2013-09-16 17:30:00,
2013-09-16 10:35:00,60.3,57.7,30.07,South,180,0.0,0.0,91,0.00,,---,0.02,VWS V14.01,2013-09-16 17:35:00,
2013-09-16 10:40:00,60.5,57.6,30.07,South,180,0.4,0.4,90,0.00,,---,0.02,VWS V14.01,2013-09-16 17:40:00,
2013-09-16 10:45:00,60.8,57.8,30.08,South,180,0.0,0.0,90,0.00,,---,0.02,VWS V14.01,2013-09-16 17:45:00,
2013-09-16 10:50:00,61.0,58.0,30.08,South,180,0.0,0.0,90,0.00,,---,0.02,VWS V14.01,2013-09-16 17:50:00,
2013-09-16 10:55:00,61.4,58.5,30.07,South,180,0.0,0.2,90,0.00,,---,0.02,VWS V14.01,2013-09-16 17:55:00,
2013-09-16 11:00:00,61.6,58.3,30.08,South,180,0.7,0.9,89,0.00,,---,0.02,VWS V14.01,2013-09-16 18:00:00,
2013-09-16 11:05:00,61.7,58.4,30.08,South,180,1.1,1.1,89,0.00,,---,0.02,VWS V14.01,2013-09-16 18:05:00,
2013-09-16 11:10:00,61.9,58.3,30.08,South,180,1.6,1.6,88,0.00,,---,0.02,VWS V14.01,2013-09-16 18:10:00,
2013-09-16 11:15:00,62.1,57.9,30.08,South,180,4.0,4.0,86,0.00,,---,0.01,VWS V14.01,2013-09-16 18:15:00,
2013-09-16 11:20:00,62.1,57.2,30.09,South,180,3.4,3.4,84,0.00,,---,0.02,VWS V14.01,2013-09-16 18:20:00,
2013-09-16 11:25:00,62.3,57.7,30.09,South,180,2.5,2.5,85,0.00,,---,0.02,VWS V14.01,2013-09-16 18:25:00,
2013-09-16 11:30:00,62.3,57.7,30.09,South,180,0.4,0.4,85,0.00,,---,0.02,VWS V14.01,2013-09-16 18:30:00,
2013-09-16 11:35:00,62.3,58.1,30.09,South,180,2.5,2.5,86,0.00,,---,0.02,VWS V14.01,2013-09-16 18:35:00,
2013-09-16 11:40:00,62.1,58.2,30.09,South,180,0.7,0.7,87,0.00,,---,0.02,VWS V14.01,2013-09-16 18:40:00,
2013-09-16 11:45:00,62.3,58.1,30.09,South,180,0.0,0.0,86,0.00,,---,0.02,VWS V14.01,2013-09-16 18:45:00,
2013-09-16 11:50:00,62.3,58.4,30.09,South,180,0.0,0.0,87,0.00,,---,0.02,VWS V14.01,2013-09-16 18:50:00,
2013-09-16 11:55:00,62.3,58.4,30.09,South,180,0.4,0.9,87,0.00,,---,0.02,VWS V14.01,2013-09-16 18:55:00,
2013-09-16 12:00:00,62.3,58.4,30.10,South,180,0.4,0.7,87,0.00,,---,0.02,VWS V14.01,2013-09-16 19:00:00,
2013-09-16 12:05:00,62.3,58.4,30.10,South,180,1.1,1.1,87,0.00,,---,0.02,VWS V14.01,2013-09-16 19:05:00,
2013-09-16 12:10:00,62.1,58.2,30.10,South,180,1.8,1.8,87,0.00,,---,0.02,VWS V14.01,2013-09-16 19:10:00,
2013-09-16 12:15:00,62.3,58.4,30.10,South,180,1.3,1.3,87,0.00,,---,0.02,VWS V14.01,2013-09-16 19:15:00,
2013-09-16 12:20:00,62.5,58.6,30.10,South,180,1.8,1.8,87,0.00,,---,0.02,VWS V14.01,2013-09-16 19:20:00,
2013-09-16 12:25:00,62.8,58.9,30.11,South,180,0.9,0.9,87,0.00,,---,0.02,VWS V14.01,2013-09-16 19:25:00,
2013-09-16 12:30:00,63.0,59.1,30.10,South,180,2.9,2.9,87,0.00,,---,0.02,VWS V14.01,2013-09-16 19:30:00,
2013-09-16 12:35:00,63.4,59.5,30.10,South,180,2.9,2.9,87,0.00,,---,0.02,VWS V14.01,2013-09-16 19:35:00,
2013-09-16 12:40:00,63.7,59.8,30.10,South,180,0.0,0.0,87,0.00,,---,0.02,VWS V14.01,2013-09-16 19:40:00,
2013-09-16 12:45:00,63.7,59.8,30.10,South,180,1.3,1.3,87,0.00,,---,0.02,VWS V14.01,2013-09-16 19:45:00,
2013-09-16 12:50:00,64.1,59.5,30.10,South,180,0.0,0.0,85,0.00,,---,0.02,VWS V14.01,2013-09-16 19:50:00,
2013-09-16 12:55:00,64.4,59.8,30.10,South,180,1.8,1.8,85,0.00,,---,0.02,VWS V14.01,2013-09-16 19:55:00,
2013-09-16 13:00:00,64.3,58.7,30.10,South,180,0.7,0.7,82,0.00,,---,0.02,VWS V14.01,2013-09-16 20:00:00,
2013-09-16 13:05:00,64.3,58.7,30.10,South,180,2.5,2.5,82,0.00,,---,0.02,VWS V14.01,2013-09-16 20:05:00,
2013-09-16 13:10:00,64.4,58.8,30.10,South,180,2.0,2.0,82,0.00,,---,0.02,VWS V14.01,2013-09-16 20:10:00,
2013-09-16 13:15:00,64.3,58.7,30.10,South,180,1.3,1.3,82,0.00,,---,0.02,VWS V14.01,2013-09-16 20:15:00,
2013-09-16 13:20:00,64.4,59.1,30.10,South,180,0.4,0.4,83,0.00,,---,0.02,VWS V14.01,2013-09-16 20:20:00,
2013-09-16 13:25:00,64.6,59.3,30.09,South,180,1.3,1.3,83,0.00,,---,0.02,VWS V14.01,2013-09-16 20:25:00,
2013-09-16 13:30:00,65.0,60.0,30.09,South,180,0.0,0.0,84,0.00,,---,0.02,VWS V14.01,2013-09-16 20:30:00,
2013-09-16 13:35:00,65.5,60.2,30.09,South,180,2.7,2.7,83,0.00,,---,0.02,VWS V14.01,2013-09-16 20:35:00,
2013-09-16 13:40:00,65.7,60.1,30.09,South,180,2.5,2.5,82,0.00,,---,0.02,VWS V14.01,2013-09-16 20:40:00,
2013-09-16 13:45:00,65.9,59.6,30.09,South,180,3.4,3.4,80,0.00,,---,0.02,VWS V14.01,2013-09-16 20:45:00,
2013-09-16 13:50:00,66.2,60.5,30.09,South,180,1.1,1.1,82,0.00,,---,0.02,VWS V14.01,2013-09-16 20:50:00,
2013-09-16 13:55:00,66.1,59.8,30.09,South,180,1.1,1.1,80,0.00,,---,0.02,VWS V14.01,2013-09-16 20:55:00,
2013-09-16 14:00:00,65.9,58.9,30.09,South,180,1.1,1.1,78,0.00,,---,0.02,VWS V14.01,2013-09-16 21:00:00,
2013-09-16 14:05:00,65.7,59.0,30.09,South,180,1.1,1.8,79,0.00,,---,0.02,VWS V14.01,2013-09-16 21:05:00,
2013-09-16 14:10:00,65.5,58.8,30.09,South,180,0.2,0.2,79,0.00,,---,0.02,VWS V14.01,2013-09-16 21:10:00,
2013-09-16 14:15:00,65.3,59.0,30.10,South,180,1.8,1.8,80,0.00,,---,0.02,VWS V14.01,2013-09-16 21:15:00,
2013-09-16 14:20:00,65.0,59.0,30.10,South,180,0.4,0.4,81,0.01,,---,0.03,VWS V14.01,2013-09-16 21:20:00,
2013-09-16 14:25:00,64.8,59.2,30.09,South,180,0.0,0.0,82,0.01,,---,0.03,VWS V14.01,2013-09-16 21:25:00,
2013-09-16 14:30:00,64.4,58.8,30.09,South,180,1.1,1.1,82,0.01,,---,0.03,VWS V14.01,2013-09-16 21:30:00,
2013-09-16 14:35:00,64.3,59.0,30.10,South,180,0.9,0.9,83,0.01,,---,0.03,VWS V14.01,2013-09-16 21:35:00,
2013-09-16 14:40:00,64.3,59.0,30.09,South,180,1.6,1.6,83,0.01,,---,0.03,VWS V14.01,2013-09-16 21:40:00,
2013-09-16 14:45:00,64.1,59.2,30.09,South,180,1.1,1.1,84,0.01,,---,0.03,VWS V14.01,2013-09-16 21:45:00,
2013-09-16 14:50:00,64.1,59.2,30.09,South,180,0.0,0.0,84,0.01,,---,0.03,VWS V14.01,2013-09-16 21:50:00,
2013-09-16 14:55:00,64.4,59.8,30.09,South,180,0.4,0.4,85,0.01,,---,0.03,VWS V14.01,2013-09-16 21:55:00,
2013-09-16 15:00:00,64.6,60.0,30.09,South,180,1.1,1.1,85,0.01,,---,0.03,VWS V14.01,2013-09-16 22:00:00,
2013-09-16 15:05:00,64.8,60.2,30.09,South,180,1.1,1.1,85,0.01,,---,0.03,VWS V14.01,2013-09-16 22:05:00,
2013-09-16 15:10:00,65.3,60.7,30.08,South,180,0.4,0.4,85,0.01,,---,0.03,VWS V14.01,2013-09-16 22:10:00,
2013-09-16 15:15:00,65.5,60.9,30.08,South,180,0.7,0.7,85,0.01,,---,0.03,VWS V14.01,2013-09-16 22:15:00,
2013-09-16 15:20:00,65.7,60.4,30.08,South,180,1.8,1.8,83,0.00,,---,0.03,VWS V14.01,2013-09-16 22:20:00,
2013-09-16 15:25:00,65.7,60.1,30.08,South,180,0.7,0.7,82,0.00,,---,0.03,VWS V14.01,2013-09-16 22:25:00,
2013-09-16 15:30:00,65.7,59.7,30.08,South,180,0.4,0.4,81,0.00,,---,0.03,VWS V14.01,2013-09-16 22:30:00,
2013-09-16 15:35:00,65.7,60.1,30.09,South,180,2.0,2.0,82,0.00,,---,0.03,VWS V14.01,2013-09-16 22:35:00,
2013-09-16 15:40:00,65.5,59.2,30.08,South,180,0.4,1.3,80,0.00,,---,0.03,VWS V14.01,2013-09-16 22:40:00,
2013-09-16 15:45:00,65.5,59.2,30.08,South,180,3.4,3.4,80,0.00,,---,0.03,VWS V14.01,2013-09-16 22:45:00,
2013-09-16 15:50:00,65.9,59.6,30.08,South,180,0.9,0.9,80,0.00,,---,0.03,VWS V14.01,2013-09-16 22:50:00,
2013-09-16 15:55:00,65.9,59.2,30.08,South,180,1.1,1.1,79,0.00,,---,0.03,VWS V14.01,2013-09-16 22:55:00,
2013-09-16 16:00:00,65.7,58.7,30.08,South,180,1.3,1.3,78,0.00,,---,0.01,VWS V14.01,2013-09-16 23:00:00,
2013-09-16 16:05:00,65.5,58.1,30.08,South,180,2.2,2.2,77,0.00,,---,0.03,VWS V14.01,2013-09-16 23:05:00,
2013-09-16 16:10:00,65.3,58.6,30.08,South,180,0.4,0.4,79,0.00,,---,0.03,VWS V14.01,2013-09-16 23:10:00,
2013-09-16 16:14:00,65.2,58.9,30.08,South,180,0.7,0.7,80,0.00,,---,0.03,VWS V14.01,2013-09-16 23:14:00,
2013-09-16 16:19:00,65.0,58.7,30.09,South,180,3.1,3.1,80,0.00,,---,0.03,VWS V14.01,2013-09-16 23:19:00,
2013-09-16 16:24:00,64.6,58.7,30.08,South,180,0.4,0.4,81,0.00,,---,0.03,VWS V14.01,2013-09-16 23:24:00,
2013-09-16 16:29:00,64.4,58.8,30.08,South,180,0.0,0.0,82,0.01,,---,0.04,VWS V14.01,2013-09-16 23:29:00,
2013-09-16 16:34:00,64.3,58.7,30.09,South,180,0.0,0.0,82,0.01,,---,0.04,VWS V14.01,2013-09-16 23:34:00,
2013-09-16 16:39:00,64.3,58.7,30.08,South,180,0.0,0.0,82,0.01,,---,0.04,VWS V14.01,2013-09-16 23:39:00,
2013-09-16 16:44:00,64.3,59.0,30.08,South,180,1.3,1.3,83,0.01,,---,0.04,VWS V14.01,2013-09-16 23:44:00,
2013-09-16 16:49:00,64.6,59.3,30.08,South,180,0.4,0.4,83,0.01,,---,0.04,VWS V14.01,2013-09-16 23:49:00,
2013-09-16 16:54:00,64.6,59.3,30.08,South,180,0.0,0.0,83,0.01,,---,0.04,VWS V14.01,2013-09-16 23:54:00,
2013-09-16 16:59:00,64.4,59.1,30.08,South,180,0.7,0.7,83,0.01,,---,0.04,VWS V14.01,2013-09-16 23:59:00,
2013-09-16 17:04:00,64.3,59.0,30.08,South,180,0.0,0.0,83,0.01,,---,0.04,VWS V14.01,2013-09-17 00:04:00,
2013-09-16 17:09:00,63.9,58.6,30.08,South,180,0.0,0.0,83,0.01,,---,0.04,VWS V14.01,2013-09-17 00:09:00,
2013-09-16 17:14:00,63.7,58.8,30.08,South,180,0.0,0.0,84,0.01,,---,0.04,VWS V14.01,2013-09-17 00:14:00,
2013-09-16 17:19:00,63.5,58.6,30.08,ENE,68,0.0,0.0,84,0.02,,---,0.05,VWS V14.01,2013-09-17 00:19:00,
2013-09-16 17:24:00,63.4,58.5,30.08,NNE,22,1.1,1.1,84,0.02,,---,0.05,VWS V14.01,2013-09-17 00:24:00,
2013-09-16 17:29:00,63.0,58.4,30.08,North,0,0.0,0.0,85,0.01,,---,0.05,VWS V14.01,2013-09-17 00:29:00,
2013-09-16 17:34:00,62.8,58.2,30.08,ENE,68,0.0,0.0,85,0.01,,---,0.05,VWS V14.01,2013-09-17 00:34:00,
2013-09-16 17:39:00,62.8,58.6,30.08,East,90,0.0,0.0,86,0.01,,---,0.05,VWS V14.01,2013-09-17 00:39:00,
2013-09-16 17:44:00,62.8,58.6,30.07,NNE,22,1.1,1.1,86,0.01,,---,0.05,VWS V14.01,2013-09-17 00:44:00,
2013-09-16 17:49:00,62.6,58.4,30.08,NNE,22,0.4,0.4,86,0.01,,---,0.05,VWS V14.01,2013-09-17 00:49:00,
2013-09-16 17:54:00,62.6,58.7,30.07,NE,45,0.9,0.9,87,0.01,,---,0.05,VWS V14.01,2013-09-17 00:54:00,
2013-09-16 17:59:00,62.5,58.6,30.08,South,180,0.4,2.5,87,0.01,,---,0.05,VWS V14.01,2013-09-17 00:59:00,
2013-09-16 18:04:00,62.5,58.6,30.07,South,180,0.0,0.4,87,0.01,,---,0.05,VWS V14.01,2013-09-17 01:04:00,
2013-09-16 18:09:00,62.3,58.4,30.07,South,180,0.0,0.0,87,0.01,,---,0.05,VWS V14.01,2013-09-17 01:09:00,
2013-09-16 18:14:00,62.3,58.7,30.08,South,180,0.0,0.0,88,0.01,,---,0.05,VWS V14.01,2013-09-17 01:14:00,
2013-09-16 18:19:00,62.1,58.5,30.08,South,180,0.0,0.0,88,0.00,,---,0.05,VWS V14.01,2013-09-17 01:19:00,
2013-09-16 18:24:00,62.1,58.5,30.08,South,180,0.0,0.0,88,0.00,,---,0.05,VWS V14.01,2013-09-17 01:24:00,
2013-09-16 18:29:00,61.9,58.3,30.08,South,180,1.1,1.1,88,0.00,,---,0.05,VWS V14.01,2013-09-17 01:29:00,
2013-09-16 18:34:00,61.9,58.3,30.08,South,180,0.9,0.9,88,0.00,,---,0.05,VWS V14.01,2013-09-17 01:34:00,
2013-09-16 18:39:00,61.9,58.3,30.08,South,180,0.2,0.2,88,0.00,,---,0.05,VWS V14.01,2013-09-17 01:39:00,
2013-09-16 18:44:00,61.9,58.3,30.07,South,180,0.0,0.0,88,0.00,,---,0.05,VWS V14.01,2013-09-17 01:44:00,
2013-09-16 18:49:00,61.9,58.6,30.07,South,180,0.4,0.4,89,0.00,,---,0.05,VWS V14.01,2013-09-17 01:49:00,
2013-09-16 18:54:00,61.7,58.4,30.07,North,0,0.2,0.2,89,0.00,,---,0.05,VWS V14.01,2013-09-17 01:54:00,
2013-09-16 18:59:00,61.7,58.4,30.07,North,0,0.0,0.0,89,0.00,,---,0.05,VWS V14.01,2013-09-17 01:59:00,
2013-09-16 19:04:00,61.6,58.3,30.07,NNE,22,0.0,0.0,89,0.00,,---,0.01,VWS V14.01,2013-09-17 02:04:00,
2013-09-16 19:09:00,61.6,58.3,30.07,NNE,22,0.4,0.4,89,0.00,,---,0.05,VWS V14.01,2013-09-17 02:09:00,
2013-09-16 19:14:00,61.4,58.1,30.07,North,0,0.4,0.4,89,0.00,,---,0.05,VWS V14.01,2013-09-17 02:14:00,
2013-09-16 19:19:00,61.2,57.9,30.07,North,0,0.2,0.2,89,0.00,,---,0.05,VWS V14.01,2013-09-17 02:19:00,
2013-09-16 19:24:00,61.0,57.7,30.07,North,0,0.0,0.0,89,0.00,,---,0.05,VWS V14.01,2013-09-17 02:24:00,
2013-09-16 19:29:00,60.8,57.5,30.07,North,0,0.0,0.0,89,0.00,,---,0.05,VWS V14.01,2013-09-17 02:29:00,
2013-09-16 19:34:00,60.7,57.4,30.07,North,0,0.0,0.0,89,0.00,,---,0.05,VWS V14.01,2013-09-17 02:34:00,
2013-09-16 19:39:00,60.7,57.4,30.07,North,0,0.0,0.0,89,0.00,,---,0.05,VWS V14.01,2013-09-17 02:39:00,
2013-09-16 19:44:00,60.7,57.4,30.07,North,0,0.0,0.0,89,0.00,,---,0.05,VWS V14.01,2013-09-17 02:44:00,
2013-09-16 19:49:00,60.5,57.2,30.07,North,0,0.0,0.0,89,0.00,,---,0.05,VWS V14.01,2013-09-17 02:49:00,
2013-09-16 19:54:00,60.5,57.2,30.07,North,0,0.0,0.0,89,0.00,,---,0.05,VWS V14.01,2013-09-17 02:54:00,
2013-09-16 19:59:00,60.5,57.6,30.08,WNW,292,0.0,0.0,90,0.00,,---,0.05,VWS V14.01,2013-09-17 02:59:00,
2013-09-16 20:04:00,60.5,57.6,30.08,SW,225,0.0,0.0,90,0.00,,---,0.05,VWS V14.01,2013-09-17 03:04:00,
2013-09-16 20:09:00,60.3,57.4,30.08,SW,225,0.0,0.0,90,0.00,,---,0.05,VWS V14.01,2013-09-17 03:09:00,
2013-09-16 20:14:00,60.3,57.4,30.08,South,180,0.9,0.9,90,0.00,,---,0.05,VWS V14.01,2013-09-17 03:14:00,
2013-09-16 20:19:00,60.1,57.2,30.08,South,180,0.4,0.4,90,0.00,,---,0.05,VWS V14.01,2013-09-17 03:19:00,
2013-09-16 20:24:00,60.1,57.2,30.08,South,180,0.0,0.0,90,0.00,,---,0.05,VWS V14.01,2013-09-17 03:24:00,
2013-09-16 20:29:00,60.1,57.2,30.08,South,180,0.0,0.0,90,0.00,,---,0.05,VWS V14.01,2013-09-17 03:29:00,
2013-09-16 20:34:00,60.1,57.2,30.08,South,180,0.0,0.0,90,0.00,,---,0.05,VWS V14.01,2013-09-17 03:34:00,
2013-09-16 20:39:00,60.1,57.2,30.08,South,180,0.0,0.0,90,0.00,,---,0.05,VWS V14.01,2013-09-17 03:39:00,
2013-09-16 20:44:00,60.1,57.2,30.09,South,180,0.0,0.0,90,0.00,,---,0.05,VWS V14.01,2013-09-17 03:44:00,
2013-09-16 20:49:00,60.1,57.2,30.09,South,180,0.0,0.0,90,0.00,,---,0.05,VWS V14.01,2013-09-17 03:49:00,
2013-09-16 20:54:00,60.1,57.2,30.09,South,180,0.0,0.0,90,0.00,,---,0.05,VWS V14.01,2013-09-17 03:54:00,
2013-09-16 20:59:00,60.1,57.2,30.09,South,180,0.0,0.0,90,0.00,,---,0.05,VWS V14.01,2013-09-17 03:59:00,
2013-09-16 21:01:00,60.1,57.2,30.09,South,180,0.0,0.0,90,0.00,,---,0.05,VWS V14.01,2013-09-17 04:01:00,
2013-09-16 21:06:00,60.1,57.2,30.08,South,180,0.0,0.0,90,0.00,,---,0.05,VWS V14.01,2013-09-17 04:06:00,
2013-09-16 21:11:00,60.1,57.2,30.08,South,180,0.9,0.9,90,0.00,,---,0.05,VWS V14.01,2013-09-17 04:11:00,
2013-09-16 21:16:00,59.9,57.0,30.08,South,180,0.0,0.0,90,0.00,,---,0.05,VWS V14.01,2013-09-17 04:16:00,
2013-09-16 21:21:00,59.8,56.9,30.08,South,180,0.0,0.0,90,0.00,,---,0.05,VWS V14.01,2013-09-17 04:21:00,
2013-09-16 21:26:00,59.8,56.9,30.08,South,180,0.0,0.0,90,0.00,,---,0.05,VWS V14.01,2013-09-17 04:26:00,
2013-09-16 21:31:00,59.6,56.7,30.08,South,180,0.0,0.0,90,0.00,,---,0.05,VWS V14.01,2013-09-17 04:31:00,
2013-09-16 21:36:00,59.4,56.5,30.07,South,180,0.0,0.0,90,0.00,,---,0.05,VWS V14.01,2013-09-17 04:36:00,
2013-09-16 21:41:00,59.4,56.5,30.07,South,180,0.2,0.2,90,0.00,,---,0.05,VWS V14.01,2013-09-17 04:41:00,
2013-09-16 21:46:00,59.4,56.5,30.07,South,180,0.0,0.0,90,0.00,,---,0.05,VWS V14.01,2013-09-17 04:46:00,
2013-09-16 21:51:00,59.2,56.3,30.08,South,180,0.0,0.0,90,0.00,,---,0.05,VWS V14.01,2013-09-17 04:51:00,
2013-09-16 21:56:00,59.2,56.3,30.08,South,180,0.0,0.0,90,0.00,,---,0.05,VWS V14.01,2013-09-17 04:56:00,
2013-09-16 22:01:00,59.2,56.3,30.08,South,180,0.0,0.0,90,0.00,,---,0.05,VWS V14.01,2013-09-17 05:01:00,
2013-09-16 22:06:00,59.2,56.3,30.08,South,180,0.0,0.0,90,0.00,,---,0.05,VWS V14.01,2013-09-17 05:06:00,
2013-09-16 22:11:00,59.2,56.6,30.08,South,180,0.0,0.0,91,0.00,,---,0.05,VWS V14.01,2013-09-17 05:11:00,
2013-09-16 22:16:00,59.0,56.1,30.08,South,180,0.0,0.0,90,0.00,,---,0.05,VWS V14.01,2013-09-17 05:16:00,
2013-09-16 22:21:00,59.0,56.4,30.08,South,180,0.0,0.0,91,0.00,,---,0.05,VWS V14.01,2013-09-17 05:21:00,
2013-09-16 22:26:00,59.0,56.4,30.08,South,180,0.0,0.0,91,0.00,,---,0.05,VWS V14.01,2013-09-17 05:26:00,
2013-09-16 22:31:00,59.0,56.1,30.07,NE,45,1.6,1.6,90,0.00,,---,0.05,VWS V14.01,2013-09-17 05:31:00,
2013-09-16 22:36:00,59.0,56.1,30.07,North,0,1.3,1.3,90,0.00,,---,0.05,VWS V14.01,2013-09-17 05:36:00,
2013-09-16 22:41:00,58.9,56.0,30.07,North,0,0.4,0.4,90,0.00,,---,0.05,VWS V14.01,2013-09-17 05:41:00,
2013-09-16 22:46:00,58.7,55.8,30.07,ESE,112,0.0,0.0,90,0.00,,---,0.05,VWS V14.01,2013-09-17 05:46:00,
2013-09-16 22:51:00,58.7,55.8,30.07,East,90,0.0,0.0,90,0.00,,---,0.05,VWS V14.01,2013-09-17 05:51:00,
2013-09-16 22:56:00,58.7,55.8,30.07,NNE,22,0.7,0.7,90,0.00,,---,0.05,VWS V14.01,2013-09-17 05:56:00,
2013-09-16 23:01:00,58.5,55.6,30.07,NNE,22,0.2,0.2,90,0.00,,---,0.05,VWS V14.01,2013-09-17 06:01:00,
2013-09-16 23:06:00,58.7,55.8,30.07,NE,45,0.0,0.0,90,0.00,,---,0.05,VWS V14.01,2013-09-17 06:06:00,
2013-09-16 23:11:00,58.5,55.6,30.07,NNE,22,0.0,0.0,90,0.00,,---,0.05,VWS V14.01,2013-09-17 06:11:00,
2013-09-16 23:16:00,58.3,55.4,30.07,West,270,0.0,0.0,90,0.00,,---,0.05,VWS V14.01,2013-09-17 06:16:00,
2013-09-16 23:21:00,58.3,55.4,30.07,South,180,0.7,0.7,90,0.00,,---,0.05,VWS V14.01,2013-09-17 06:21:00,
2013-09-16 23:26:00,58.1,55.2,30.07,South,180,0.0,0.0,90,0.00,,---,0.05,VWS V14.01,2013-09-17 06:26:00,
2013-09-16 23:31:00,58.3,55.4,30.07,South,180,0.0,0.0,90,0.00,,---,0.05,VWS V14.01,2013-09-17 06:31:00,
2013-09-16 23:36:00,58.1,55.2,30.07,South,180,0.0,0.0,90,0.00,,---,0.05,VWS V14.01,2013-09-17 06:36:00,
2013-09-16 23:41:00,58.0,55.1,30.07,South,180,0.0,0.0,90,0.00,,---,0.05,VWS V14.01,2013-09-17 06:41:00,
2013-09-16 23:46:00,58.0,55.1,30.07,South,180,0.0,0.0,90,0.00,,---,0.05,VWS V14.01,2013-09-17 06:46:00,
2013-09-16 23:51:00,58.0,55.1,30.07,South,180,0.0,0.0,90,0.00,,---,0.05,VWS V14.01,2013-09-17 06:51:00,
2013-09-16 23:56:00,57.8,54.9,30.07,South,180,0.0,0.0,90,0.00,,---,0.05,VWS V14.01,2013-09-17 06:56:00,